Regional Weather Roundup
Issued by NWS

Home | Current Version | Previous Version | Graphics & Text | Print | Product List | Glossary On
Versions: 1 2 3 4 5 6 7 8 9 10 11 12 13 14 15 16 17 18 19 20 21 22 23 24 25 26 27 28 29 30 31 32 33 34 35 36 37 38 39 40 41 42 43 44 45 46 47 48 49 50
000
ASUS43 KFSD 241210
RWRSD

WEATHER ROUNDUP FOR SOUTH DAKOTA
NATIONAL WEATHER SERVICE SIOUX FALLS SD
700 AM CDT WED AUG 24 2016

NOTE: "FAIR" INDICATES FEW OR NO CLOUDS BELOW 12,000 FEET WITH NO
SIGNIFICANT WEATHER AND/OR OBSTRUCTIONS TO VISIBILITY.


SDZ001>005-009-010-012>017-241300-
NORTHWEST AND NORTH CENTRAL SOUTH DAKOTA

CITY           SKY/WX    TMP DP  RH WIND       PRES   REMARKS
BUFFALO          N/A     50  45  83 W12       30.07R
FAITH            N/A     56  46  69 NW14      30.10R
MOBRIDGE       PTCLDY    59  45  59 W10       30.02R
$$

SDZ012>016-024>037-041>051-057-063-072>074-241300-
SOUTHWEST AND SOUTH CENTRAL SOUTH DAKOTA

CITY           SKY/WX    TMP DP  RH WIND       PRES   REMARKS
RAPID CTY ARPT PTCLDY    59  42  53 N17       30.15R
PIERRE         CLEAR     55  47  74 NW9       30.04R
CUSTER         CLOUDY    49  28  44 NW3       30.23R
ELLSWORTH AFB  MOCLDY    60  43  52 N17       30.14R
PHILIP         CLOUDY    59  42  53 NW10      30.09R
PINE RIDGE     CLOUDY    42  40  92 CALM      30.16R
WINNER         FAIR      53  44  71 W7        30.07R
$$

SDZ004>011-016>023-039-040-241300-
NORTHEAST SOUTH DAKOTA

CITY           SKY/WX    TMP DP  RH WIND       PRES   REMARKS
ABERDEEN       CLEAR     56  47  71 W8        29.98R
WATERTOWN      CLEAR     60  54  80 NW8       29.96R
BROOKINGS      CLEAR     56  53  90 NW3       29.95R
SISSETON         N/A     60  49  66 NW9       29.91R
$$

SDZ017-020-022-023-036>040-048>070-241300-
SOUTHEAST SOUTH DAKOTA

CITY           SKY/WX    TMP DP  RH WIND       PRES   REMARKS
SIOUX FALLS    PTCLDY    60  53  77 NW6       29.95R
HURON          CLEAR     53  47  79 NW10      29.98R
CHAMBERLAIN    CLEAR     55  48  76 W8        30.04R
MITCHELL       CLEAR     55  47  74 W6        29.98S
YANKTON        CLEAR     55  46  71 NW10      29.96R
$$

ABBREVIATIONS USED IN REMARKS
   TC - TEMPERATURE IN CELSIUS
  WCI - WIND CHILL INDEX
   HX - HEAT INDEX
  VSB - VISIBILITY





USA.gov is the U.S. government's official web portal to all federal, state and local government web resources and services.